This demonstration page uses our WeatherBlox Daily Observations layout. Learn more.

Left ArrowRight Arrow

Hourly Observations for October 23, 2022

Temp ( °F °C ) Dew Point ( °F °C ) Humidity (%) Winds ( mph kmh ) Pressure ( in mb ) Visibility ( mi km ) Precip ( " mm )
12:53 am 00:53 Cloudy with Light Wintry Mix 34 1.1 33 0.6 96 96 NE 14 22 29.63 1003 N/A 0.02 0.51
1:53 am 01:53 Cloudy with Light Snow 33 0.6 32 0 96 96 ENE 8 13 29.64 1004 N/A 0.05 1.27
2:53 am 02:53 Cloudy with Light Snow 33 0.6 32 0 96 96 ENE 8 13 29.63 1003 N/A 0.05 1.27
3:53 am 03:53 Cloudy with Light Snow 33 0.6 32 0 96 96 NE 8 13 29.63 1003 N/A 0.03 0.76
4:53 am 04:53 Cloudy with Light Snow 33 0.6 32 0 96 96 NE 6 9 29.63 1003 N/A 0.02 0.51
5:53 am 05:53 Cloudy with Light Snow 33 0.6 33 0.6 100 100 NE 7 11 29.66 1004 N/A 0.03 0.76
6:49 am 06:49 Cloudy 34 1 34 1 100 100 NNE 9 15 29.71 1006 N/A 0.01 0.13
6:53 am 06:53 Cloudy 34 1.1 33 0.6 96 96 NE 9 15 29.67 1005 N/A 0.01 0.25
7:15 am 07:15 Cloudy with Light Snow 34 1.1 33 0.6 96 96 NNE 7 11 29.72 1006 N/A 0.01 0.25
7:53 am 07:53 Cloudy with Light Wintry Mix 34 1.1 33 0.6 96 96 NNE 10 17 29.69 1006 N/A 0.02 0.51
8:28 am 08:28 Cloudy with Light Snow 34 1.1 33 0.6 96 96 NNE 13 20 29.75 1007 N/A 0.01 0.25
8:53 am 08:53 Cloudy 34 1.1 33 0.6 96 96 NNE 12 19 29.72 1006 N/A 0.02 0.51
9:45 am 09:45 Cloudy 35 1.7 33 0.6 92 92 N 14 22 29.76 1008 N/A 0.00 0.00
9:53 am 09:53 Cloudy 35 1.7 33 0.6 92 92 NNE 16 26 29.73 1007 N/A 0.00 0.00
10:38 am 10:38 Cloudy 35 1.7 33 0.6 92 92 N 17 28 29.78 1008 N/A 0.00 0.00
10:53 am 10:53 Cloudy 35 1.7 33 0.6 92 92 N 14 22 29.77 1008 N/A 0.00 0.00
11:04 am 11:04 Cloudy 35 1.7 33 0.6 92 92 N 16 26 29.80 1009 N/A 0.00 0.00
11:23 am 11:23 Cloudy 35 1.7 33 0.6 92 92 NNE 20 31 29.80 1009 N/A 0.00 0.00
11:53 am 11:53 Cloudy 36 2.2 33 0.6 89 89 N 16 26 29.80 1009 N/A 0.00 0.00
12:24 pm 12:24 Cloudy 35 1.7 33 0.6 92 92 N 17 28 29.83 1010 N/A 0.00 0.00
12:33 pm 12:33 Cloudy 35 1.7 33 0.6 92 92 N 17 28 29.84 1011 N/A 0.00 0.00
12:53 pm 12:53 Cloudy 35 1.7 33 0.6 92 92 N 14 22 29.83 1010 N/A 0.00 0.00
1:04 pm 13:04 Cloudy with Light Snow 35 1.7 33 0.6 92 92 N 14 22 29.85 1011 N/A 0.01 0.13
1:14 pm 13:14 Cloudy with Light Snow 35 1.7 33 0.6 92 92 N 16 26 29.85 1011 N/A 0.01 0.13
1:53 pm 13:53 Cloudy 35 1.7 33 0.6 92 92 N 18 30 29.85 1011 N/A 0.01 0.25
2:09 pm 14:09 Windy with Snow Likely 35 1.7 33 0.6 92 92 N 20 31 29.87 1012 N/A 0.01 0.13
2:53 pm 14:53 Windy with Snow Likely 34 1.1 32 0 92 92 N 21 33 29.88 1012 N/A 0.01 0.25
3:53 pm 15:53 Windy with Snow Likely 33 0.6 31 -0.6 92 92 N 20 31 29.93 1013 N/A 0.02 0.51
4:53 pm 16:53 Cloudy with Light Snow 33 0.6 31 -0.6 92 92 N 12 19 29.96 1015 N/A 0.02 0.51
5:37 pm 17:37 Cloudy with Snow 32 0 31 -0.6 96 96 NNW 10 17 30.02 1017 N/A 0.02 0.51
5:53 pm 17:53 Cloudy with Snow 32 0 31 -0.6 96 96 NNW 14 22 30.00 1016 N/A 0.03 0.76
6:05 pm 18:05 Cloudy with Snow 32 0 31 -0.6 96 96 N 12 19 30.04 1017 N/A 0.01 0.13
6:53 pm 18:53 Cloudy with Snow 32 0 31 -0.6 96 96 NNW 13 20 30.03 1017 N/A 0.03 0.76
7:05 pm 19:05 Cloudy with Light Snow 32 0 31 -0.6 96 96 NNW 12 19 30.06 1018 N/A 0.01 0.13
7:34 pm 19:34 Cloudy with Light Snow 32 0 30 -1.1 92 92 NNW 13 20 30.08 1019 N/A 0.01 0.25
7:53 pm 19:53 Cloudy with Light Snow 32 0 30 -1.1 92 92 NNW 8 13 30.06 1018 N/A 0.01 0.25
8:53 pm 20:53 Cloudy with Light Snow 33 0.6 29 -1.7 85 85 NW 13 20 30.06 1018 N/A 0.01 0.13
9:18 pm 21:18 Cloudy 33 0.6 29 -1.7 85 85 NNW 12 19 30.09 1019 N/A 0.01 0.13
9:53 pm 21:53 Cloudy 33 0.6 30 -1.1 88 88 NW 9 15 30.06 1018 N/A 0.01 0.13
10:53 pm 22:53 Cloudy 33 0.6 30 -1.1 88 88 NW 9 15 30.07 1018 N/A 0.00 0.00
11:01 pm 23:01 Cloudy 33 0.6 30 -1.1 88 88 NW 9 15 30.09 1019 N/A 0.00 0.00
11:53 pm 23:53 Cloudy with Light Snow 33 0.6 30 -1.1 88 88 WNW 8 13 30.06 1018 N/A 0.01 0.13

Powered by AerisWeather